DELTA 1 DEB, 5443

Orbit data source: Space-Track

DELTA 1 DEB, 5443 is space debris in SSO originally from a launch on Fri, 10 Nov 1967 UTC launched from the Air Force Western Test Range (AFWTR). Debris objects in space refer to the collection of defunct objects orbiting the Earth. Examples of debris include non-operational satellites, rocket bodies, and fragments generated from explosions, collisions, or faulty payload assembly.

Loading next visibility...
Identifier
5443, 1967-114E
Orbit
SSO
Country
Flag of USUS
Related business
Manufacturer
Unknown
Mission
Spacecraft
Bus & Motor
Unknown
Mass
Unknown
Launch date (UTC)
1967-11-10 (59 years ago)
Launch vehicle
Unknown
Launch site
Air Force Western Test Range (AFWTR)
Object type
Payload
Rocket body
Debris
Shape & HBR
Unknown shape, 0.1 m
Radar Cross Section
Medium (>0.1 m² and <1 m²)

Expand to show TLE details & history
Last TLE update: 4 days ago

TLE from 4 days ago
0 DELTA 1 DEB
1 05443U 67114E   26172.13696528 -.00000010  00000-0  20142-3 0  9997
2 05443 101.4128 126.7654 0062506  18.0766   3.8717 12.56812035687755
Epoch: 2026-06-21T03:17Z
TLE epoch observation values (Epoch: 2026-06-21T03:17:13.800Z)
Latitude
21.55283°
Longitude
163.56585°
Altitude
1,389.744 km
Speed
7.189 km/s
True Right ascension
08h 08m 51s
True Declination
21° 26' 42"
Sunlit
Object was in daylight at epoch
Visualization orbit readout
Latitude
Unknown
Longitude
Unknown
Altitude
Unknown
Speed
Unknown
Apparent Right ascension
Unknown
Apparent Declination
Unknown
Sunlit
N/A
Visualization observer readout
Local Sidereal Time
04:42:52
Azimuth
Unknown
Elevation
Unknown
Doppler factor
Unknown
Orbital elements
Apogee altitude
1,482.477 km
Perigee altitude
1,384.821 km
Semi-major axis
7,811.786 km
Eccentricity
0.00625
Inclination
101.4128°
RAAN
126.7654°
Arg. of periapsis
18.0766°
True anomaly
3.92044°
Mean anomaly
3.8717°
Eccentric anomaly
3.89603°
Mean motion
3.14353 °/min
Orbital period
114.52 mins
BSTAR
0.00020142
Loading maneuver chart data...
Computing Atmospheric mass density...
Loading historical data...
Loading historical data...
Loading historical data...
Loading historical data...
Loading historical data...
Loading historical data...
Loading historical data...
Other satellites on launch #114 in the year 1967 (1967-11-10 UTC)

Documentation

Showing up to 5 results
|